DLH94 KMCO-GOBD

Flight info

Callsign DLH94
Flight time N/A
Altitude 37995
Route MZULO3 LENDS M203 SNAGY/M085F370 DCT 29N060W 29N057W DCT 2950N DCT 2945N DCT 28N042W DCT 2740N DCT 24N034W DCT ULTEM/N0496F370 UR976 LUMPO R976 LIGOV
Aircraft A388/J-SADE2E3FGHIJ3J4J5M1RWXY/LB1D1

Departure

Time N/A
Airport Orlando International Airport (KMCO)

Arrival

Time 2026-04-25 19:09
Airport Blaise Diagne International Airport (GOBD)
Time Latitude Longitude Altitude Speed Heading
2026-04-25 15:22 29.00777 -50.31267 38021 ft 621 kts 93°
2026-04-25 15:23 29.00544 -50.21412 38023 ft 621 kts 93°
2026-04-25 15:23 29.00307 -50.11548 38024 ft 621 kts 93°
2026-04-25 15:24 29.00063 -50.01679 38024 ft 621 kts 93°
2026-04-25 15:24 28.99971 -49.95128 38028 ft 621 kts 90°
2026-04-25 15:25 29.00277 -49.81987 38026 ft 621 kts 89°
2026-04-25 15:25 29.00483 -49.72098 38025 ft 621 kts 89°
2026-04-25 15:26 29.00650 -49.62230 38024 ft 620 kts 89°
2026-04-25 15:26 29.00800 -49.52447 38027 ft 621 kts 89°
2026-04-25 15:27 29.00944 -49.42589 38026 ft 620 kts 89°
2026-04-25 15:28 29.01147 -49.27781 38031 ft 620 kts 89°
2026-04-25 15:28 29.01273 -49.17920 38034 ft 620 kts 89°
2026-04-25 15:29 29.01391 -49.08130 38032 ft 620 kts 90°
2026-04-25 15:29 29.01503 -48.98276 38035 ft 620 kts 90°
2026-04-25 15:30 29.01607 -48.88434 38034 ft 619 kts 90°
2026-04-25 15:30 29.01705 -48.78569 38036 ft 620 kts 90°
2026-04-25 15:31 29.01795 -48.68725 38036 ft 619 kts 90°
2026-04-25 15:31 29.01878 -48.58889 38035 ft 619 kts 90°
2026-04-25 15:32 29.01953 -48.49102 38039 ft 619 kts 90°
2026-04-25 15:32 29.02022 -48.39253 38044 ft 619 kts 90°
2026-04-25 15:33 29.02112 -48.24482 38044 ft 619 kts 90°
2026-04-25 15:33 29.02162 -48.14645 38044 ft 619 kts 90°
2026-04-25 15:34 29.02199 -48.06450 38043 ft 619 kts 90°
2026-04-25 15:34 29.02231 -47.98273 38043 ft 618 kts 90°
2026-04-25 15:35 29.02279 -47.81925 38049 ft 619 kts 90°
2026-04-25 15:36 29.02306 -47.67139 38054 ft 619 kts 90°
2026-04-25 15:36 29.02315 -47.57301 38054 ft 619 kts 90°
2026-04-25 15:37 29.02317 -47.47474 38051 ft 619 kts 90°
2026-04-25 15:37 29.02311 -47.37643 38059 ft 618 kts 90°
2026-04-25 15:38 29.02299 -47.27815 38056 ft 619 kts 90°
2026-04-25 15:38 29.02279 -47.18062 38061 ft 618 kts 90°
2026-04-25 15:39 29.02252 -47.08236 38059 ft 618 kts 90°
2026-04-25 15:39 29.02218 -46.98411 38059 ft 618 kts 90°
2026-04-25 15:40 29.02185 -46.90260 38059 ft 617 kts 90°
2026-04-25 15:40 29.02129 -46.78795 38063 ft 617 kts 90°
2026-04-25 15:41 29.02074 -46.68975 38067 ft 617 kts 90°
2026-04-25 15:41 29.02011 -46.59172 38062 ft 617 kts 90°
2026-04-25 15:42 29.01942 -46.49416 38070 ft 617 kts 90°
2026-04-25 15:42 29.01866 -46.39610 38068 ft 617 kts 90°
2026-04-25 15:43 29.01782 -46.29802 38070 ft 616 kts 90°
2026-04-25 15:43 29.01691 -46.20000 38068 ft 616 kts 90°
2026-04-25 15:44 29.01593 -46.10209 38072 ft 616 kts 90°
2026-04-25 15:44 29.01488 -46.00413 38075 ft 616 kts 90°
2026-04-25 15:45 29.01377 -45.90699 38072 ft 616 kts 90°
2026-04-25 15:45 29.01279 -45.82552 38077 ft 616 kts 90°
2026-04-25 15:46 29.01132 -45.71112 38081 ft 616 kts 90°
2026-04-25 15:46 29.00999 -45.61334 38079 ft 616 kts 90°
2026-04-25 15:47 29.00859 -45.51540 38079 ft 616 kts 90°
2026-04-25 15:47 29.00711 -45.41758 38085 ft 616 kts 90°
2026-04-25 15:48 29.00558 -45.32043 38082 ft 615 kts 90°
2026-04-25 15:48 29.00396 -45.22263 38085 ft 615 kts 90°
2026-04-25 15:49 29.00231 -45.12475 38087 ft 615 kts 90°
2026-04-25 15:49 28.99795 -45.02718 38084 ft 615 kts 98°
2026-04-25 15:50 28.97843 -44.93225 38091 ft 612 kts 112°
2026-04-25 15:50 28.94894 -44.84126 38088 ft 611 kts 113°
2026-04-25 15:51 28.92474 -44.76548 38086 ft 611 kts 113°
2026-04-25 15:51 28.89070 -44.65939 38089 ft 611 kts 113°
2026-04-25 15:52 28.86130 -44.56830 38088 ft 612 kts 113°
2026-04-25 15:52 28.83180 -44.47719 38096 ft 612 kts 113°
2026-04-25 15:53 28.80223 -44.38606 38095 ft 612 kts 113°
2026-04-25 15:53 28.77260 -44.29503 38093 ft 612 kts 113°
2026-04-25 15:54 28.74281 -44.20373 38096 ft 612 kts 113°
2026-04-25 15:54 28.71327 -44.11340 38096 ft 613 kts 113°
2026-04-25 15:55 28.68340 -44.02235 38095 ft 612 kts 113°
2026-04-25 15:55 28.65346 -43.93130 38094 ft 613 kts 113°
2026-04-25 15:56 28.62351 -43.84045 38101 ft 613 kts 113°
2026-04-25 15:56 28.59368 -43.75020 38102 ft 613 kts 113°
2026-04-25 15:57 28.56357 -43.65933 38099 ft 613 kts 113°
2026-04-25 15:57 28.53344 -43.56864 38097 ft 613 kts 113°
2026-04-25 15:58 28.50321 -43.47791 38103 ft 613 kts 113°
2026-04-25 15:58 28.47292 -43.38720 38103 ft 613 kts 113°
2026-04-25 15:59 28.44274 -43.29705 38103 ft 613 kts 113°
2026-04-25 15:59 28.41228 -43.20633 38102 ft 613 kts 113°
2026-04-25 16:00 28.39192 -43.14579 38106 ft 613 kts 113°
2026-04-25 16:00 28.35127 -43.02523 38104 ft 614 kts 113°
2026-04-25 16:01 28.32066 -42.93474 38108 ft 613 kts 113°
2026-04-25 16:01 28.29000 -42.84432 38107 ft 614 kts 113°
2026-04-25 16:02 28.25943 -42.75438 38103 ft 614 kts 113°
2026-04-25 16:02 28.22862 -42.66397 38115 ft 614 kts 113°
2026-04-25 16:03 28.19776 -42.57366 38123 ft 615 kts 113°
2026-04-25 16:03 28.16680 -42.48326 38108 ft 615 kts 113°
2026-04-25 16:04 28.13582 -42.39304 38114 ft 614 kts 113°
2026-04-25 16:04 28.10472 -42.30269 38112 ft 614 kts 113°
2026-04-25 16:05 28.07357 -42.21242 38117 ft 615 kts 113°
2026-04-25 16:06 28.02697 -42.07774 38112 ft 615 kts 113°
2026-04-25 16:06 27.99410 -41.98847 38116 ft 612 kts 120°
2026-04-25 16:07 27.95300 -41.90429 38113 ft 610 kts 123°
2026-04-25 16:07 27.91190 -41.82024 38116 ft 611 kts 122°
2026-04-25 16:08 27.87097 -41.73672 38115 ft 611 kts 123°
2026-04-25 16:08 27.82969 -41.65277 38115 ft 611 kts 123°
2026-04-25 16:09 27.78834 -41.56886 38116 ft 611 kts 123°
2026-04-25 16:09 27.74689 -41.48493 38112 ft 611 kts 123°
2026-04-25 16:10 27.70542 -41.40112 38112 ft 611 kts 123°
2026-04-25 16:10 27.66386 -41.31730 38115 ft 611 kts 123°
2026-04-25 16:11 27.62227 -41.23357 38115 ft 612 kts 123°
2026-04-25 16:11 27.58067 -41.15000 38112 ft 612 kts 123°
2026-04-25 16:12 27.53882 -41.06611 38114 ft 613 kts 123°
2026-04-25 16:12 27.49729 -40.98297 38117 ft 612 kts 123°
2026-04-25 16:13 27.45540 -40.89933 38113 ft 615 kts 123°
2026-04-25 16:13 27.41344 -40.81567 38115 ft 612 kts 123°
2026-04-25 16:14 27.37147 -40.73218 38114 ft 612 kts 123°
2026-04-25 16:14 27.32950 -40.64884 38112 ft 613 kts 123°
2026-04-25 16:15 27.28746 -40.56553 38112 ft 612 kts 123°
2026-04-25 16:15 27.24603 -40.48367 38118 ft 615 kts 123°
2026-04-25 16:16 27.20395 -40.40053 38118 ft 611 kts 123°
2026-04-25 16:16 27.16176 -40.31739 38119 ft 612 kts 123°
2026-04-25 16:17 27.11955 -40.23436 38115 ft 612 kts 124°
2026-04-25 16:17 27.07736 -40.15154 38121 ft 613 kts 124°
2026-04-25 16:18 27.03501 -40.06858 38116 ft 613 kts 124°
2026-04-25 16:18 26.99265 -39.98562 38118 ft 612 kts 123°
2026-04-25 16:19 26.95292 -39.90144 38116 ft 614 kts 121°
2026-04-25 16:19 26.91374 -39.81651 38117 ft 614 kts 121°
2026-04-25 16:20 26.86096 -39.70363 38112 ft 614 kts 121°
2026-04-25 16:21 26.80121 -39.57665 38114 ft 613 kts 121°
2026-04-25 16:21 26.76134 -39.49221 38115 ft 613 kts 121°
2026-04-25 16:22 26.72127 -39.40754 38115 ft 614 kts 121°
2026-04-25 16:22 26.68157 -39.32378 38111 ft 613 kts 121°
2026-04-25 16:23 26.64151 -39.23944 38112 ft 613 kts 122°
2026-04-25 16:23 26.60146 -39.15531 38113 ft 613 kts 122°
2026-04-25 16:24 26.56140 -39.07128 38114 ft 613 kts 122°
2026-04-25 16:24 26.52125 -38.98727 38114 ft 613 kts 122°
2026-04-25 16:25 26.48108 -38.90333 38113 ft 613 kts 122°
2026-04-25 16:25 26.44086 -38.81947 38111 ft 613 kts 122°
2026-04-25 16:26 26.40083 -38.73616 38111 ft 613 kts 122°
2026-04-25 16:26 26.36042 -38.65227 38082 ft 613 kts 120°
2026-04-25 16:27 26.31986 -38.56817 38110 ft 616 kts 120°
2026-04-25 16:27 26.27933 -38.48428 38103 ft 615 kts 120°
2026-04-25 16:28 26.23859 -38.40013 38103 ft 615 kts 120°
2026-04-25 16:28 26.19788 -38.31623 38110 ft 615 kts 120°
2026-04-25 16:29 26.15739 -38.23292 38109 ft 616 kts 120°
2026-04-25 16:29 26.11655 -38.14906 38111 ft 616 kts 120°
2026-04-25 16:30 26.07557 -38.06505 38102 ft 616 kts 120°
2026-04-25 16:30 26.03470 -37.98143 38104 ft 616 kts 121°
2026-04-25 16:31 25.99369 -37.89769 38106 ft 616 kts 121°
2026-04-25 16:31 25.95290 -37.81456 38100 ft 616 kts 121°
2026-04-25 16:32 25.91183 -37.73101 38108 ft 616 kts 121°
2026-04-25 16:32 25.87068 -37.64745 38106 ft 615 kts 121°
2026-04-25 16:33 25.82961 -37.56419 38106 ft 615 kts 121°
2026-04-25 16:33 25.78842 -37.48086 38106 ft 615 kts 121°
2026-04-25 16:34 25.74717 -37.39756 38109 ft 615 kts 121°
2026-04-25 16:34 25.70609 -37.31476 38107 ft 616 kts 121°
2026-04-25 16:35 25.66473 -37.23154 38108 ft 615 kts 121°
2026-04-25 16:35 25.62339 -37.14851 38108 ft 615 kts 121°
2026-04-25 16:36 25.58202 -37.06557 38106 ft 615 kts 121°
2026-04-25 16:36 25.54085 -36.98314 38109 ft 608 kts 123°
2026-04-25 16:37 25.49976 -36.90111 38108 ft 609 kts 123°
2026-04-25 16:37 25.45892 -36.81969 38105 ft 609 kts 123°
2026-04-25 16:38 25.41775 -36.73775 38107 ft 609 kts 123°
2026-04-25 16:38 25.37649 -36.65578 38104 ft 608 kts 123°
2026-04-25 16:39 25.33532 -36.57414 38104 ft 608 kts 123°
2026-04-25 16:39 25.29403 -36.49239 38108 ft 608 kts 123°
2026-04-25 16:40 25.25271 -36.41074 38108 ft 608 kts 123°
2026-04-25 16:40 25.21136 -36.32918 38109 ft 608 kts 123°
2026-04-25 16:41 25.17025 -36.24821 38109 ft 608 kts 123°
2026-04-25 16:41 25.10819 -36.12626 38104 ft 607 kts 123°
2026-04-25 16:42 25.06669 -36.04490 38106 ft 607 kts 123°
2026-04-25 16:42 25.02546 -35.96419 38111 ft 607 kts 123°
2026-04-25 16:43 24.99090 -35.89667 38108 ft 608 kts 123°
2026-04-25 16:43 24.94248 -35.80218 38107 ft 604 kts 123°
2026-04-25 16:44 24.90102 -35.72148 38107 ft 605 kts 123°
2026-04-25 16:44 24.85946 -35.64070 38103 ft 606 kts 123°
2026-04-25 16:45 24.81796 -35.56016 38110 ft 604 kts 123°
2026-04-25 16:45 24.77665 -35.48014 38108 ft 604 kts 123°
2026-04-25 16:46 24.73512 -35.39983 38108 ft 604 kts 123°
2026-04-25 16:46 24.70725 -35.34600 38111 ft 603 kts 123°
2026-04-25 16:47 24.65181 -35.23913 38106 ft 603 kts 124°
2026-04-25 16:47 24.61044 -35.15953 38118 ft 604 kts 124°
2026-04-25 16:48 24.56866 -35.07927 38114 ft 602 kts 124°
2026-04-25 16:48 24.52700 -34.99937 38102 ft 601 kts 124°
2026-04-25 16:49 24.48541 -34.91976 38105 ft 600 kts 124°
2026-04-25 16:49 24.44398 -34.84059 38103 ft 601 kts 124°
2026-04-25 16:50 24.40935 -34.77449 38110 ft 600 kts 124°
2026-04-25 16:50 24.36067 -34.68175 38107 ft 600 kts 124°
2026-04-25 16:51 24.31920 -34.60287 38076 ft 601 kts 124°
2026-04-25 16:51 24.29116 -34.54962 38134 ft 612 kts 124°
2026-04-25 16:52 24.25577 -34.48150 38232 ft 623 kts 123°
2026-04-25 16:52 24.23385 -34.43997 38113 ft 633 kts 124°
2026-04-25 16:52 24.21166 -34.39838 38819 ft 624 kts 124°
2026-04-25 16:52 24.19021 -34.35802 40060 ft 602 kts 124°
2026-04-25 16:53 24.14900 -34.27987 41233 ft 593 kts 123°
2026-04-25 16:53 24.12880 -34.24069 41184 ft 584 kts 123°
2026-04-25 16:53 24.10856 -34.20246 40709 ft 578 kts 124°
2026-04-25 16:54 24.08812 -34.16457 39924 ft 579 kts 125°
2026-04-25 16:54 24.06756 -34.12644 39058 ft 584 kts 124°
2026-04-25 16:54 24.04697 -34.08802 38415 ft 583 kts 124°
2026-04-25 16:54 24.02664 -34.04989 38152 ft 586 kts 124°
2026-04-25 16:55 24.00634 -34.01182 38141 ft 594 kts 124°
2026-04-25 16:55 23.96230 -33.93551 38114 ft 593 kts 126°
2026-04-25 16:56 23.91909 -33.85941 38112 ft 593 kts 126°
2026-04-25 16:56 23.87541 -33.78290 38111 ft 592 kts 126°
2026-04-25 16:57 23.83162 -33.70661 38112 ft 592 kts 126°
2026-04-25 16:57 23.78777 -33.63045 38115 ft 591 kts 126°
2026-04-25 16:58 23.74403 -33.55463 38120 ft 590 kts 126°
2026-04-25 16:58 23.70050 -33.47926 38124 ft 590 kts 126°
2026-04-25 16:59 23.65665 -33.40347 38126 ft 589 kts 126°
2026-04-25 16:59 23.61289 -33.32794 38116 ft 588 kts 127°
2026-04-25 17:00 23.56923 -33.25268 38093 ft 587 kts 127°
2026-04-25 17:00 23.52567 -33.17774 38109 ft 587 kts 127°
2026-04-25 17:01 23.48198 -33.10266 38110 ft 587 kts 127°
2026-04-25 17:01 23.43820 -33.02753 38107 ft 586 kts 127°
2026-04-25 17:02 23.39432 -32.95236 38108 ft 585 kts 127°
2026-04-25 17:02 23.35087 -32.87804 38100 ft 585 kts 127°
2026-04-25 17:03 23.30716 -32.80337 38103 ft 585 kts 127°
2026-04-25 17:03 23.26341 -32.72875 38106 ft 585 kts 127°
2026-04-25 17:04 23.21967 -32.65426 38111 ft 584 kts 127°
2026-04-25 17:04 23.17584 -32.57972 38084 ft 579 kts 127°
2026-04-25 17:05 23.13250 -32.50615 38114 ft 583 kts 127°
2026-04-25 17:05 23.07472 -32.40816 38106 ft 583 kts 127°
2026-04-25 17:06 23.02374 -32.32188 38105 ft 584 kts 127°
2026-04-25 17:06 22.98729 -32.26027 38104 ft 584 kts 127°
2026-04-25 17:07 22.94337 -32.18615 38100 ft 584 kts 126°
2026-04-25 17:07 22.89936 -32.11197 38098 ft 584 kts 127°
2026-04-25 17:08 22.85531 -32.03785 38098 ft 584 kts 126°
2026-04-25 17:08 22.81127 -31.96384 38106 ft 583 kts 126°
2026-04-25 17:09 22.76750 -31.89038 38101 ft 584 kts 126°
2026-04-25 17:09 22.72352 -31.81668 38100 ft 581 kts 126°
2026-04-25 17:10 22.67949 -31.74300 38098 ft 582 kts 126°
2026-04-25 17:10 22.63532 -31.66920 38098 ft 584 kts 126°
2026-04-25 17:11 22.59116 -31.59550 38100 ft 584 kts 126°
2026-04-25 17:11 22.54688 -31.52171 38100 ft 583 kts 126°
2026-04-25 17:12 22.50273 -31.44824 38094 ft 579 kts 126°
2026-04-25 17:12 22.45909 -31.37572 38101 ft 583 kts 126°
2026-04-25 17:13 22.42189 -31.31401 38096 ft 584 kts 126°
2026-04-25 17:13 22.37025 -31.22841 38097 ft 584 kts 126°
2026-04-25 17:14 22.32577 -31.15480 38091 ft 584 kts 126°
2026-04-25 17:14 22.28135 -31.08140 38091 ft 584 kts 126°
2026-04-25 17:15 22.23716 -31.00847 38086 ft 584 kts 126°
2026-04-25 17:15 22.19257 -30.93501 38091 ft 591 kts 126°
2026-04-25 17:16 22.14700 -30.86004 38090 ft 598 kts 126°
2026-04-25 17:16 22.10139 -30.78505 38088 ft 598 kts 126°
2026-04-25 17:17 22.05563 -30.70994 38083 ft 597 kts 126°
2026-04-25 17:17 22.00996 -30.63509 38084 ft 597 kts 126°
2026-04-25 17:18 21.96457 -30.56081 38083 ft 597 kts 126°
2026-04-25 17:18 21.91887 -30.48612 38079 ft 596 kts 126°
2026-04-25 17:19 21.87321 -30.41160 38079 ft 596 kts 126°
2026-04-25 17:19 21.82745 -30.33702 38081 ft 596 kts 126°
2026-04-25 17:20 21.78174 -30.26261 38075 ft 595 kts 126°
2026-04-25 17:20 21.73631 -30.18877 38077 ft 595 kts 126°
2026-04-25 17:21 21.69065 -30.11466 38076 ft 594 kts 126°
2026-04-25 17:21 21.64503 -30.04071 38078 ft 594 kts 126°
2026-04-25 17:22 21.60672 -29.97868 38077 ft 596 kts 126°
2026-04-25 17:22 21.55332 -29.89231 38078 ft 593 kts 126°
2026-04-25 17:23 21.50771 -29.81859 38071 ft 592 kts 126°
2026-04-25 17:23 21.46038 -29.74658 38069 ft 591 kts 128°
2026-04-25 17:24 21.41290 -29.67424 38072 ft 591 kts 128°
2026-04-25 17:24 21.36557 -29.60229 38069 ft 590 kts 128°
2026-04-25 17:25 21.31804 -29.53034 38068 ft 590 kts 128°
2026-04-25 17:25 21.27087 -29.45913 38065 ft 589 kts 128°
2026-04-25 17:26 21.22325 -29.38732 38065 ft 589 kts 128°
2026-04-25 17:26 21.17572 -29.31575 38064 ft 589 kts 128°
2026-04-25 17:27 21.12816 -29.24421 38062 ft 588 kts 128°
2026-04-25 17:27 21.09673 -29.19700 38057 ft 588 kts 128°
2026-04-25 17:28 21.03349 -29.10212 38062 ft 587 kts 128°
2026-04-25 17:28 20.98602 -29.03099 38057 ft 587 kts 128°
2026-04-25 17:29 20.93856 -28.95997 38058 ft 586 kts 128°
2026-04-25 17:29 20.89100 -28.88889 38057 ft 586 kts 128°
2026-04-25 17:30 20.84355 -28.81807 38053 ft 585 kts 128°
2026-04-25 17:30 20.79611 -28.74734 38049 ft 585 kts 128°
2026-04-25 17:31 20.74869 -28.67673 38052 ft 584 kts 128°
2026-04-25 17:31 20.70154 -28.60662 38048 ft 584 kts 129°
2026-04-25 17:32 20.65404 -28.53607 38049 ft 584 kts 128°
2026-04-25 17:32 20.60663 -28.46574 38047 ft 583 kts 128°
2026-04-25 17:33 20.55925 -28.39554 38045 ft 583 kts 128°
2026-04-25 17:33 20.51180 -28.32531 38042 ft 582 kts 129°
2026-04-25 17:34 20.46445 -28.25533 38042 ft 582 kts 129°
2026-04-25 17:34 20.41709 -28.18541 38036 ft 581 kts 129°
2026-04-25 17:35 20.37003 -28.11602 38042 ft 581 kts 129°
2026-04-25 17:35 20.32257 -28.04613 38039 ft 580 kts 129°
2026-04-25 17:36 20.27528 -27.97657 38040 ft 580 kts 129°
2026-04-25 17:36 20.22797 -27.90703 38038 ft 579 kts 129°
2026-04-25 17:37 20.18066 -27.83762 38037 ft 578 kts 129°
2026-04-25 17:37 20.13363 -27.76868 38029 ft 578 kts 129°
2026-04-25 17:38 20.10206 -27.72246 38029 ft 577 kts 129°
2026-04-25 17:38 20.03932 -27.63070 38045 ft 577 kts 129°
2026-04-25 17:39 19.99194 -27.56149 38034 ft 577 kts 129°
2026-04-25 17:39 19.94467 -27.49253 38021 ft 576 kts 129°
2026-04-25 17:40 19.89744 -27.42371 38016 ft 575 kts 129°
2026-04-25 17:40 19.85023 -27.35498 38020 ft 574 kts 129°
2026-04-25 17:41 19.80341 -27.28691 38035 ft 574 kts 129°
2026-04-25 17:41 19.75623 -27.21841 38016 ft 573 kts 129°
2026-04-25 17:42 19.71710 -27.16163 38019 ft 572 kts 129°
2026-04-25 17:42 19.66207 -27.08189 38017 ft 572 kts 129°
2026-04-25 17:43 19.61523 -27.01409 38013 ft 571 kts 129°
2026-04-25 17:43 19.56820 -26.94612 38017 ft 570 kts 129°
2026-04-25 17:44 19.52113 -26.87814 38015 ft 570 kts 129°
2026-04-25 17:44 19.47435 -26.81067 38022 ft 569 kts 129°
2026-04-25 17:45 19.44322 -26.76580 38019 ft 569 kts 129°
2026-04-25 17:45 19.38063 -26.67571 38013 ft 568 kts 129°
2026-04-25 17:46 19.33372 -26.60826 38013 ft 568 kts 129°
2026-04-25 17:46 19.28696 -26.54111 38016 ft 567 kts 129°
2026-04-25 17:47 19.24013 -26.47394 38018 ft 566 kts 129°
2026-04-25 17:47 19.19340 -26.40699 38015 ft 565 kts 129°
2026-04-25 17:48 19.12363 -26.30714 38013 ft 564 kts 129°
2026-04-25 17:49 19.07695 -26.24045 38016 ft 564 kts 129°
2026-04-25 17:49 19.03015 -26.17363 38011 ft 563 kts 129°
2026-04-25 17:50 18.98363 -26.10725 38008 ft 563 kts 129°
2026-04-25 17:50 18.93708 -26.04083 38009 ft 563 kts 129°
2026-04-25 17:51 18.89085 -25.97409 38008 ft 562 kts 129°
2026-04-25 17:51 18.84470 -25.90736 38008 ft 562 kts 129°
2026-04-25 17:52 18.79850 -25.84074 38006 ft 562 kts 129°
2026-04-25 17:52 18.76005 -25.78538 38004 ft 562 kts 129°
2026-04-25 17:53 18.70635 -25.70815 38002 ft 561 kts 129°
2026-04-25 17:53 18.66787 -25.65286 38002 ft 561 kts 129°
2026-04-25 17:54 18.62166 -25.58653 38003 ft 560 kts 129°
2026-04-25 17:54 18.57548 -25.52031 38001 ft 560 kts 129°
2026-04-25 17:55 18.52923 -25.45406 38000 ft 560 kts 129°
2026-04-25 17:55 18.48306 -25.38800 38003 ft 559 kts 130°
2026-04-25 17:56 18.43721 -25.32245 37993 ft 559 kts 130°
2026-04-25 17:56 18.39110 -25.25660 37995 ft 559 kts 130°
2026-04-25 17:57 18.34495 -25.19077 38000 ft 558 kts 130°
2026-04-25 17:57 18.29877 -25.12497 37991 ft 558 kts 130°
2026-04-25 17:58 18.25287 -25.05963 37993 ft 557 kts 130°
2026-04-25 17:58 18.20672 -24.99398 37991 ft 558 kts 130°
2026-04-25 17:59 18.16061 -24.92848 37989 ft 557 kts 130°
2026-04-25 17:59 18.11443 -24.86293 38000 ft 556 kts 130°
2026-04-25 18:00 18.07606 -24.80852 37988 ft 556 kts 130°
2026-04-25 18:00 18.02251 -24.73266 37979 ft 556 kts 130°
2026-04-25 18:01 17.97641 -24.66743 37983 ft 556 kts 130°
2026-04-25 18:01 17.93030 -24.60225 37988 ft 556 kts 130°
2026-04-25 18:02 17.88409 -24.53699 37994 ft 556 kts 130°
2026-04-25 18:02 17.83800 -24.47195 37990 ft 556 kts 130°
2026-04-25 18:03 17.79181 -24.40686 37986 ft 555 kts 130°
2026-04-25 18:03 17.74557 -24.34174 37985 ft 555 kts 130°
2026-04-25 18:04 17.69934 -24.27679 37980 ft 555 kts 130°
2026-04-25 18:04 17.65308 -24.21259 37984 ft 555 kts 130°
2026-04-25 18:05 17.60654 -24.14803 37962 ft 554 kts 130°
2026-04-25 18:05 17.55997 -24.08344 37974 ft 554 kts 130°
2026-04-25 18:06 17.51346 -24.01897 37971 ft 554 kts 130°
2026-04-25 18:06 17.46701 -23.95463 37969 ft 553 kts 130°
2026-04-25 18:07 17.36683 -23.81126 38951 ft 502 kts 132°
2026-04-25 18:08 17.34487 -23.78248 38902 ft 511 kts 133°
2026-04-25 18:08 17.32254 -23.75336 38794 ft 514 kts 132°
2026-04-25 18:08 17.30010 -23.72348 38579 ft 528 kts 131°
2026-04-25 18:08 17.27732 -23.69260 38282 ft 544 kts 131°
2026-04-25 18:09 17.25434 -23.66110 38103 ft 554 kts 130°
2026-04-25 18:09 17.23114 -23.62909 37985 ft 550 kts 130°
2026-04-25 18:09 17.20804 -23.59720 37967 ft 550 kts 130°
2026-04-25 18:10 17.16163 -23.53325 37966 ft 551 kts 130°
2026-04-25 18:10 17.11548 -23.46978 37966 ft 550 kts 130°
2026-04-25 18:11 17.06915 -23.40613 37963 ft 549 kts 130°
2026-04-25 18:11 17.02314 -23.34297 37963 ft 549 kts 130°
2026-04-25 18:12 16.97687 -23.27954 37957 ft 549 kts 130°
2026-04-25 18:12 16.93089 -23.21655 37953 ft 548 kts 130°
2026-04-25 18:13 16.88470 -23.15333 37949 ft 548 kts 130°
2026-04-25 18:13 16.83839 -23.09001 37944 ft 548 kts 130°
2026-04-25 18:14 16.76894 -22.99515 37944 ft 548 kts 130°
2026-04-25 18:14 16.72932 -22.92699 37938 ft 553 kts 116°
2026-04-25 18:15 16.70214 -22.85171 37940 ft 555 kts 111°
2026-04-25 18:15 16.67579 -22.77596 37941 ft 555 kts 111°
2026-04-25 18:16 16.64941 -22.70044 37940 ft 555 kts 111°
2026-04-25 18:17 16.60991 -22.58739 37940 ft 554 kts 112°
2026-04-25 18:17 16.58352 -22.51197 37946 ft 554 kts 112°
2026-04-25 18:18 16.55700 -22.43626 37941 ft 554 kts 112°
2026-04-25 18:18 16.53061 -22.36104 37942 ft 554 kts 112°
2026-04-25 18:19 16.50414 -22.28565 37940 ft 553 kts 112°
2026-04-25 18:19 16.47776 -22.21065 37939 ft 554 kts 112°
2026-04-25 18:20 16.45126 -22.13538 37945 ft 553 kts 112°
2026-04-25 18:20 16.42471 -22.06008 37941 ft 553 kts 112°
2026-04-25 18:21 16.39809 -21.98470 37946 ft 553 kts 112°
2026-04-25 18:21 16.37152 -21.90951 37939 ft 554 kts 112°
2026-04-25 18:22 16.34501 -21.83460 37939 ft 553 kts 112°
2026-04-25 18:22 16.31837 -21.75946 37936 ft 553 kts 112°
2026-04-25 18:23 16.29172 -21.68434 37937 ft 553 kts 112°
2026-04-25 18:23 16.26488 -21.60915 37936 ft 553 kts 112°
2026-04-25 18:24 16.23793 -21.53418 37928 ft 553 kts 112°
2026-04-25 18:24 16.21097 -21.45921 37933 ft 553 kts 112°
2026-04-25 18:25 16.18402 -21.38431 37931 ft 553 kts 112°
2026-04-25 18:25 16.15722 -21.30990 37933 ft 553 kts 112°
2026-04-25 18:26 16.13023 -21.23507 37930 ft 553 kts 112°
2026-04-25 18:26 16.10317 -21.16015 37930 ft 552 kts 112°
2026-04-25 18:27 16.07612 -21.08533 37930 ft 552 kts 112°
2026-04-25 18:27 16.04903 -21.01051 37927 ft 552 kts 112°
2026-04-25 18:28 16.02214 -20.93631 37923 ft 552 kts 112°
2026-04-25 18:28 15.99498 -20.86148 37925 ft 552 kts 112°
2026-04-25 18:29 15.95429 -20.74951 37921 ft 552 kts 112°
2026-04-25 18:30 15.90458 -20.61302 37917 ft 551 kts 112°
2026-04-25 18:30 15.87739 -20.53850 37913 ft 551 kts 112°
2026-04-25 18:31 15.85018 -20.46401 37918 ft 551 kts 112°
2026-04-25 18:31 15.82310 -20.38996 37919 ft 551 kts 112°
2026-04-25 18:32 15.79586 -20.31554 37917 ft 551 kts 112°
2026-04-25 18:32 15.76865 -20.24134 37914 ft 550 kts 112°
2026-04-25 18:33 15.74137 -20.16700 37913 ft 550 kts 112°
2026-04-25 18:33 15.71415 -20.09293 37908 ft 550 kts 112°
2026-04-25 18:34 15.68683 -20.01865 37908 ft 549 kts 112°
2026-04-25 18:34 15.65991 -19.94446 37908 ft 550 kts 111°
2026-04-25 18:35 15.63351 -19.87002 37906 ft 549 kts 111°
2026-04-25 18:35 15.60702 -19.79565 37904 ft 549 kts 111°
2026-04-25 18:36 15.58052 -19.72153 37905 ft 549 kts 111°
2026-04-25 18:36 15.55408 -19.64771 37905 ft 548 kts 111°
2026-04-25 18:37 15.52750 -19.57359 37906 ft 548 kts 111°
2026-04-25 18:37 15.50089 -19.49949 37904 ft 547 kts 111°
2026-04-25 18:38 15.47431 -19.42551 37898 ft 547 kts 111°
2026-04-25 18:38 15.44283 -19.35473 37713 ft 542 kts 118°
2026-04-25 18:39 15.42590 -19.31981 37048 ft 540 kts 118°
2026-04-25 18:39 15.40910 -19.28496 36120 ft 542 kts 117°
2026-04-25 18:39 15.39226 -19.24999 35098 ft 545 kts 117°
2026-04-25 18:39 15.37523 -19.21466 34062 ft 549 kts 117°
2026-04-25 18:40 15.35818 -19.17930 33201 ft 547 kts 116°
2026-04-25 18:40 15.34124 -19.14421 32526 ft 540 kts 116°
2026-04-25 18:40 15.32448 -19.10953 31859 ft 534 kts 116°
2026-04-25 18:40 15.30789 -19.07522 30907 ft 534 kts 116°
2026-04-25 18:41 15.29110 -19.04051 29720 ft 539 kts 115°
2026-04-25 18:41 15.27458 -19.00634 28900 ft 534 kts 116°
2026-04-25 18:41 15.25807 -18.97224 28203 ft 526 kts 116°
2026-04-25 18:41 15.24178 -18.93861 27491 ft 518 kts 116°
2026-04-25 18:42 15.22572 -18.90547 26791 ft 511 kts 116°
2026-04-25 18:42 15.21498 -18.88332 26318 ft 507 kts 116°
2026-04-25 18:42 15.19421 -18.84048 25414 ft 498 kts 116°
2026-04-25 18:42 15.17875 -18.80863 24749 ft 492 kts 116°
2026-04-25 18:43 15.16348 -18.77717 24095 ft 485 kts 116°
2026-04-25 18:43 15.14842 -18.74616 23443 ft 479 kts 116°
2026-04-25 18:43 15.13351 -18.71546 22637 ft 474 kts 117°
2026-04-25 18:43 15.11882 -18.68522 21863 ft 468 kts 117°
2026-04-25 18:44 15.10418 -18.65525 21102 ft 463 kts 117°
2026-04-25 18:44 15.08964 -18.62569 20361 ft 458 kts 117°
2026-04-25 18:44 15.07554 -18.59674 19651 ft 454 kts 117°
2026-04-25 18:44 15.06147 -18.56766 18949 ft 449 kts 117°
2026-04-25 18:45 15.04766 -18.53887 18263 ft 446 kts 117°
2026-04-25 18:45 15.03401 -18.51017 17597 ft 442 kts 117°
2026-04-25 18:45 15.02060 -18.48183 16963 ft 435 kts 118°
2026-04-25 18:45 15.00711 -18.45400 16356 ft 430 kts 118°
2026-04-25 18:46 14.99360 -18.42650 15749 ft 426 kts 119°
2026-04-25 18:46 14.98028 -18.39943 15099 ft 420 kts 118°
2026-04-25 18:46 14.96713 -18.37264 14604 ft 415 kts 119°
2026-04-25 18:46 14.95409 -18.34602 14257 ft 415 kts 119°
2026-04-25 18:47 14.94105 -18.31938 13917 ft 412 kts 119°
2026-04-25 18:47 14.92816 -18.29303 13568 ft 409 kts 119°
2026-04-25 18:47 14.91532 -18.26680 13399 ft 407 kts 119°
2026-04-25 18:47 14.90254 -18.24070 13285 ft 408 kts 118°
2026-04-25 18:48 14.88977 -18.21464 12929 ft 405 kts 118°
2026-04-25 18:48 14.87710 -18.18875 12561 ft 400 kts 118°
2026-04-25 18:48 14.86472 -18.16345 12227 ft 386 kts 119°
2026-04-25 18:48 14.85291 -18.13931 12133 ft 365 kts 119°
2026-04-25 18:49 14.84183 -18.11664 12080 ft 341 kts 119°
2026-04-25 18:49 14.83144 -18.09541 12053 ft 321 kts 119°
2026-04-25 18:49 14.82161 -18.07539 11827 ft 313 kts 119°
2026-04-25 18:49 14.81178 -18.05541 11453 ft 311 kts 119°
2026-04-25 18:50 14.80525 -18.04213 11192 ft 310 kts 120°
2026-04-25 18:50 14.79225 -18.01572 10724 ft 307 kts 119°
2026-04-25 18:50 14.78258 -17.99604 10364 ft 305 kts 119°
2026-04-25 18:50 14.77303 -17.97659 10042 ft 302 kts 119°
2026-04-25 18:51 14.76354 -17.95727 9664 ft 300 kts 119°
2026-04-25 18:51 14.75728 -17.94455 9392 ft 299 kts 119°
2026-04-25 18:51 14.74479 -17.91919 8816 ft 299 kts 118°
2026-04-25 18:51 14.73537 -17.90006 8397 ft 299 kts 118°
2026-04-25 18:52 14.72596 -17.88093 7991 ft 298 kts 117°
2026-04-25 18:52 14.71657 -17.86183 7567 ft 298 kts 117°
2026-04-25 18:52 14.70719 -17.84277 7179 ft 297 kts 117°
2026-04-25 18:52 14.69782 -17.82373 6782 ft 297 kts 116°
2026-04-25 18:53 14.68842 -17.80465 6473 ft 297 kts 116°
2026-04-25 18:53 14.67911 -17.78571 6318 ft 295 kts 116°
2026-04-25 18:53 14.66992 -17.76704 6156 ft 295 kts 116°
2026-04-25 18:53 14.66059 -17.74814 5975 ft 295 kts 115°
2026-04-25 18:54 14.64193 -17.71028 5647 ft 295 kts 115°
2026-04-25 18:54 14.63268 -17.69153 5453 ft 290 kts 115°
2026-04-25 18:54 14.62351 -17.67294 5298 ft 290 kts 115°
2026-04-25 18:55 14.61437 -17.65441 5133 ft 290 kts 115°
2026-04-25 18:55 14.60518 -17.63577 4965 ft 291 kts 115°
2026-04-25 18:55 14.59612 -17.61741 4804 ft 291 kts 115°
2026-04-25 18:55 14.58697 -17.59889 4646 ft 286 kts 115°
2026-04-25 18:56 14.57797 -17.58067 4462 ft 286 kts 114°
2026-04-25 18:56 14.56897 -17.56245 4301 ft 284 kts 115°
2026-04-25 18:56 14.56000 -17.54428 4132 ft 284 kts 114°
2026-04-25 18:56 14.55107 -17.52619 3957 ft 283 kts 115°
2026-04-25 18:57 14.54215 -17.50814 3795 ft 281 kts 114°
2026-04-25 18:57 14.53326 -17.49015 3637 ft 281 kts 114°
2026-04-25 18:57 14.52743 -17.47838 3510 ft 278 kts 114°
2026-04-25 18:57 14.52147 -17.46635 3405 ft 280 kts 114°
2026-04-25 18:58 14.50683 -17.43673 3140 ft 278 kts 114°
2026-04-25 18:58 14.48941 -17.40157 3010 ft 271 kts 114°
2026-04-25 18:58 14.48089 -17.38433 3010 ft 276 kts 114°
2026-04-25 18:59 14.46342 -17.34904 3011 ft 276 kts 114°
2026-04-25 18:59 14.44578 -17.31347 3007 ft 278 kts 114°
2026-04-25 19:00 14.42834 -17.27824 3006 ft 276 kts 114°
2026-04-25 19:00 14.41948 -17.26043 3009 ft 278 kts 114°
2026-04-25 19:01 14.40217 -17.22554 3001 ft 264 kts 114°
2026-04-25 19:01 14.39401 -17.20918 3003 ft 249 kts 113°
2026-04-25 19:01 14.38639 -17.19362 2998 ft 235 kts 109°
2026-04-25 19:01 14.38381 -17.17789 2993 ft 215 kts 76°
2026-04-25 19:02 14.39389 -17.14998 2994 ft 207 kts 64°
2026-04-25 19:02 14.40040 -17.13724 2998 ft 203 kts 59°
2026-04-25 19:02 14.40617 -17.12394 2996 ft 208 kts 64°
2026-04-25 19:03 14.41379 -17.10522 2994 ft 212 kts 64°
2026-04-25 19:03 14.42389 -17.08260 2994 ft 208 kts 49°
2026-04-25 19:03 14.43545 -17.07448 3008 ft 200 kts 14°
2026-04-25 19:04 14.46319 -17.07267 3005 ft 200 kts
2026-04-25 19:04 14.47699 -17.07045 3005 ft 197 kts
2026-04-25 19:05 14.50291 -17.07000 3001 ft 180 kts 359°
2026-04-25 19:05 14.52801 -17.07038 2694 ft 182 kts 359°
2026-04-25 19:05 14.54055 -17.07059 2447 ft 177 kts
2026-04-25 19:06 14.55261 -17.07077 2235 ft 167 kts
2026-04-25 19:06 14.57359 -17.07282 1664 ft 132 kts
2026-04-25 19:06 14.58223 -17.07306 1412 ft 117 kts
2026-04-25 19:07 14.59936 -17.07263 1073 ft 126 kts
2026-04-25 19:07 14.60795 -17.07224 1008 ft 126 kts
2026-04-25 19:08 14.62663 -17.07224 829 ft 140 kts
2026-04-25 19:08 14.63646 -17.07257 692 ft 139 kts
2026-04-25 19:09 14.66223 -17.07275 281 ft 101 kts
2026-04-25 19:09 14.66436 -17.07279 280 ft 78 kts 359°
2026-04-25 19:09 14.67259 -17.07286 276 ft 31 kts 358°
2026-04-25 19:10 14.67525 -17.07286 273 ft 38 kts
2026-04-25 19:10 14.67745 -17.07223 272 ft 30 kts 26°
2026-04-25 19:10 14.67841 -17.07162 271 ft 0 kts 70°
2026-04-25 19:10 14.67844 -17.07153 271 ft 1 kts 77°
2026-04-25 19:11 14.67846 -17.07139 271 ft 5 kts 85°
2026-04-25 19:11 14.67836 -17.07109 272 ft 6 kts 132°
2026-04-25 19:11 14.67804 -17.07091 272 ft 5 kts 182°
2026-04-25 19:11 14.67752 -17.07096 272 ft 10 kts 184°
2026-04-25 19:12 14.67653 -17.07098 273 ft 19 kts 178°
2026-04-25 19:12 14.67496 -17.07093 274 ft 25 kts 178°
2026-04-25 19:12 14.67309 -17.07093 275 ft 28 kts 181°
2026-04-25 19:12 14.67104 -17.07093 276 ft 31 kts 179°
2026-04-25 19:13 14.66881 -17.07091 278 ft 32 kts 179°
2026-04-25 19:13 14.66650 -17.07089 279 ft 34 kts 179°
2026-04-25 19:13 14.66418 -17.07087 280 ft 34 kts 179°
2026-04-25 19:13 14.66174 -17.07084 282 ft 36 kts 178°
2026-04-25 19:14 14.65927 -17.07082 283 ft 36 kts 181°
2026-04-25 19:14 14.65841 -17.07082 284 ft 34 kts 179°
2026-04-25 19:14 14.65628 -17.07079 285 ft 21 kts 179°
2026-04-25 19:14 14.65558 -17.07088 286 ft 12 kts 217°
2026-04-25 19:15 14.65544 -17.07103 286 ft 6 kts 243°
2026-04-25 19:15 14.65536 -17.07127 285 ft 0 kts 259°
2026-04-25 19:16 14.65534 -17.07138 285 ft 9 kts 262°
2026-04-25 19:17 14.65530 -17.07235 285 ft 15 kts 270°
2026-04-25 19:17 14.65530 -17.07347 286 ft 16 kts 269°
2026-04-25 19:17 14.65527 -17.07464 286 ft 15 kts 268°
2026-04-25 19:17 14.65522 -17.07573 286 ft 13 kts 267°
2026-04-25 19:18 14.65521 -17.07659 286 ft 9 kts 271°
2026-04-25 19:18 14.65521 -17.07676 286 ft 0 kts 267°
2026-04-25 19:18 14.65521 -17.07701 286 ft 5 kts 269°
2026-04-25 19:18 14.65521 -17.07702 286 ft 0 kts 269°
2026-04-25 19:20 -0.00004 -17.07702 276 ft 0 kts 270°